Flag for Germany Weather past 2 weeks in Burg, Saxony-Anhalt, Germany

Now
37 °F

Light freezing rain. Overcast.


Feels Like: 34 °F
Forecast: 34 / 47 °F
Wind: 3 mph from Northwest

Location: Magdeburg

Current Time: Mar 5, 2015 at 5:51:20 AM

Latest Report: Mar 5, 2015 at 5:00 AM


Visibility: 5 mi

Pressure: 30.42 "Hg

Humidity: 92%

Dew point: 35 °F

Location of BurgLocation

Historic Weather in Burg — Graph

°F

Burg temperature yesterday

Maximum temperature yesterday: 43 °F (at 4:00 PM)
Minimum temperature yesterday: 35 °F (at 7:00 AM)
Average temperature yesterday: 39 °F

Past Weeks' High & Low Weather Summary

 TemperatureHumidityPressure
High49 °F (Feb 20, 4:00 PM)98% (Feb 18, 6:00 AM)30.76 "Hg (Feb 18, 6:00 AM)
Low26 °F (Feb 19, 7:00 AM)49% (Feb 26, 5:00 PM)29.38 "Hg (Feb 21, 11:00 AM)
Average38 °F78%29.92 "Hg
* Reported Feb 18 3:00 AM — Mar 5 3:00 AM, Burg, Weather by CustomWeather, © 2015

Note: Actual official high and low records may vary slightly from our data, if they occured in-between our weather recording intervals... More about our weather records

Advertising

Burg weather history for previous 24 hours

 ConditionsComfort  
Time TempWeatherWind HumidityBarometerVisibility
3:00 AM
Thu, Mar 5
38 °FDrizzle. Low clouds.3 mph94%30.34 "Hg2 mi
2:00 AM38 °FOvercast.3 mph91%30.31 "Hg14 mi
1:00 AM38 °FLight rain. Overcast.5 mph91%30.28 "Hg7 mi
12:00 AM38 °FLight freezing rain. Overcast.5 mph89%30.26 "Hg7 mi
11:00 PM
Wed, Mar 4
37 °FOvercast.5 mph89%30.24 "Hg12 mi
10:00 PM37 °FOvercast.3 mph88%30.23 "Hg14 mi
9:00 PM38 °FLight rain. Overcast.6 mph83%30.22 "Hg16 mi
8:00 PM38 °FOvercast.5 mph79%30.21 "Hg16 mi
7:00 PM39 °FPassing clouds.5 mph78%30.21 "Hg25 mi
6:00 PM41 °FOvercast.5 mph71%30.20 "Hg25 mi
5:00 PM42 °FPartly sunny.6 mph68%30.19 "Hg25 mi
4:00 PM43 °FOvercast.7 mph66%30.18 "Hg25 mi
3:00 PM42 °FPartly sunny.7 mph69%30.17 "Hg25 mi
2:00 PM42 °FOvercast.7 mph68%30.17 "Hg19 mi
1:00 PM43 °FOvercast.8 mph69%30.17 "Hg19 mi
12:00 PM42 °FSprinkles. Overcast.7 mph70%30.16 "Hg12 mi
11:00 AM41 °FOvercast.6 mph71%30.15 "Hg19 mi
9:00 AM37 °FScattered clouds.6 mph76%30.13 "Hg28 mi
8:00 AM36 °FSunny.5 mph79%30.11 "Hg28 mi
7:00 AM35 °FPassing clouds.5 mph81%30.09 "Hg25 mi
6:00 AM35 °FPassing clouds.5 mph83%30.08 "Hg16 mi
5:00 AM36 °FLow clouds.7 mph84%30.05 "Hg13 mi
Weather by CustomWeather, © 2015

See weather overviewHow to use our weather pages